QPF
0.21 0.04 0.01 0.00 0.00 0.00 0.00 0.00 0.00 0.00 0.00 0.00 0.00 0.00 0.00 0.00 0.00 0.00 0.00 0.00 0.00 0.00 0.00 0.00 0.00 0.00 0.00 0.00 0.00 0.00 0.00 0.00 0.00 0.00 0.00 0.00 0.00 0.00 0.00 0.00 0.00 0.00 0.00 0.00
0.29 0.08 0.00 0.00 0.00 0.00 0.00 0.00 0.00 0.00 0.00 0.00 0.00 0.00 0.00 0.00 0.00 0.00 0.00 0.00 0.00 0.00 0.00 0.00 0.00 0.00 0.00 0.00 0.00 0.00 0.00 0.00 0.00 0.00 0.00 0.00 0.00 0.00 0.00 0.00 0.00 0.00 0.00 0.00
0.15 0.10 0.00 0.00 0.00 0.00 0.00 0.00 0.00 0.00 0.00 0.00 0.00 0.00 0.00 0.00 0.00 0.00 0.00 0.00 0.00 0.00 0.00 0.00 0.00 0.00 0.00 0.00 0.00 0.00 0.00 0.00 0.00 0.00 0.00 0.00 0.00 0.00 0.00 0.00 0.00 0.00 0.00 0.00
0.06 0.08 0.02 0.01 0.00 0.00 0.00 0.00 0.00 0.00 0.00 0.00 0.00 0.00 0.00 0.00 0.00 0.00 0.00 0.00 0.00 0.00 0.00 0.00 0.00 0.00 0.00 0.00 0.00 0.00 0.00 0.00 0.00 0.00 0.00 0.00 0.00 0.00 0.00 0.00 0.00 0.00 0.00 0.00
0.05 0.06 0.04 0.04 0.02 0.00 0.00 0.00 0.00 0.00 0.00 0.00 0.00 0.00 0.00 0.00 0.00 0.00 0.00 0.00 0.00 0.00 0.00 0.00 0.00 0.00 0.00 0.00 0.00 0.00 0.00 0.00 0.00 0.00 0.00 0.00 0.00 0.00 0.00 0.00 0.00 0.00 0.00 0.00
0.01 0.01 0.01 0.02 0.00 0.00 0.00 0.00 0.00 0.00 0.00 0.00 0.00 0.00 0.00 0.00 0.00 0.00 0.00 0.00 0.00 0.00 0.00 0.00 0.00 0.00 0.00 0.00 0.00 0.00 0.00 0.00 0.00 0.00 0.00 0.00 0.00 0.00 0.00 0.00 0.00 0.00 0.00 0.00
0.00 0.00 0.00 0.00 0.01 0.01 0.00 0.00 0.00 0.00 0.00 0.00 0.00 0.00 0.00 0.00 0.00 0.00 0.00 0.00 0.00 0.00 0.00 0.00 0.00 0.00 0.00 0.00 0.00 0.00 0.00 0.00 0.00 0.00 0.00 0.00 0.00 0.00 0.00 0.00 0.00 0.00 0.00 0.00
0.01 0.03 0.01 0.00 0.00 0.02 0.00 0.00 0.00 0.00 0.00 0.00 0.00 0.00 0.00 0.00 0.00 0.00 0.00 0.00 0.00 0.00 0.00 0.00 0.00 0.00 0.00 0.00 0.00 0.00 0.00 0.00 0.00 0.00 0.00 0.00 0.00 0.00 0.00 0.00 0.00 0.00 0.00 0.00
0.00 0.00 0.00 0.00 0.00 0.01 0.00 0.00 0.00 0.00 0.00 0.00 0.00 0.00 0.00 0.00 0.00 0.00 0.00 0.00 0.00 0.00 0.00 0.00 0.00 0.00 0.00 0.00 0.00 0.00 0.00 0.00 0.00 0.00 0.00 0.00 0.00 0.00 0.00 0.00 0.00 0.00 0.00 0.00
0.00 0.00 0.00 0.00 0.00 0.00 0.00 0.00 0.00 0.00 0.00 0.00 0.00 0.00 0.00 0.00 0.00 0.00 0.00 0.00 0.00 0.00 0.00 0.00 0.00 0.00 0.00 0.00 0.00 0.00 0.00 0.00 0.00 0.00 0.00 0.00 0.00 0.00 0.00 0.00 0.00 0.00 0.00 0.00
0.00 0.00 0.00 0.00 0.00 0.00 0.00 0.00 0.00 0.00 0.00 0.00 0.00 0.00 0.00 0.00 0.00 0.00 0.00 0.00 0.00 0.00 0.00 0.00 0.00 0.00 0.00 0.00 0.00 0.00 0.00 0.00 0.00 0.00 0.00 0.00 0.00 0.00 0.00 0.00 0.00 0.00 0.00 0.00
0.00 0.00 0.00 0.00 0.00 0.00 0.00 0.00 0.00 0.00 0.00 0.00 0.00 0.00 0.00 0.00 0.00 0.00 0.00 0.00 0.00 0.00 0.00 0.00 0.00 0.00 0.00 0.00 0.00 0.00 0.00 0.00 0.00 0.00 0.00 0.00 0.00 0.00 0.00 0.00 0.00 0.00 0.00 0.00
0.00 0.00 0.00 0.00 0.00 0.00 0.00 0.00 0.00 0.00 0.00 0.00 0.00 0.00 0.00 0.00 0.00 0.00 0.00 0.00 0.00 0.00 0.00 0.00 0.00 0.00 0.00 0.00 0.00 0.00 0.00 0.00 0.00 0.00 0.00 0.00 0.00 0.00 0.00 0.00 0.00 0.00 0.00 0.00
0.00 0.00 0.00 0.00 0.00 0.00 0.00 0.00 0.00 0.00 0.00 0.00 0.00 0.00 0.00 0.00 0.00 0.00 0.00 0.00 0.00 0.00 0.00 0.00 0.00 0.00 0.00 0.00 0.00 0.00 0.00 0.00 0.00 0.00 0.00 0.00 0.00 0.00 0.00 0.00 0.00 0.00 0.00 0.00
0.00 0.00 0.00 0.00 0.00 0.00 0.00 0.00 0.00 0.00 0.00 0.00 0.00 0.00 0.00 0.00 0.00 0.00 0.00 0.00 0.00 0.00 0.00 0.00 0.00 0.00 0.00 0.00 0.00 0.00 0.00 0.00 0.00 0.00 0.00 0.00 0.00 0.00 0.00 0.00 0.00 0.00 0.00 0.00
0.00 0.00 0.00 0.00 0.00 0.00 0.00 0.00 0.00 0.00 0.00 0.00 0.00 0.00 0.00 0.00 0.00 0.00 0.00 0.00 0.00 0.00 0.00 0.00 0.00 0.00 0.00 0.00 0.00 0.00 0.00 0.00 0.00 0.00 0.00 0.00 0.00 0.00 0.00 0.00 0.00 0.00 0.00 0.00
0.00 0.00 0.00 0.00 0.00 0.00 0.00 0.00 0.00 0.00 0.00 0.00 0.00 0.00 0.00 0.00 0.00 0.00 0.00 0.00 0.00 0.00 0.00 0.00 0.00 0.00 0.00 0.00 0.00 0.00 0.00 0.00 0.00 0.00 0.00 0.00 0.00 0.00 0.00 0.00 0.00 0.00 0.00 0.00
0.00 0.00 0.00 0.00 0.00 0.00 0.00 0.00 0.00 0.00 0.00 0.00 0.00 0.00 0.00 0.00 0.00 0.00 0.00 0.00 0.00 0.00 0.00 0.00 0.00 0.00 0.00 0.00 0.00 0.00 0.00 0.00 0.00 0.00 0.00 0.00 0.00 0.00 0.00 0.00 0.00 0.00 0.00 0.00
0.00 0.00 0.00 0.00 0.00 0.00 0.00 0.00 0.00 0.00 0.00 0.00 0.00 0.00 0.00 0.00 0.00 0.00 0.00 0.00 0.00 0.00 0.00 0.00 0.00 0.00 0.00 0.00 0.00 0.00 0.00 0.00 0.00 0.00 0.00 0.00 0.00 0.00 0.00 0.00 0.00 0.00 0.00 0.00
0.00 0.00 0.00 0.00 0.00 0.00 0.00 0.00 0.00 0.00 0.00 0.00 0.00 0.00 0.00 0.00 0.00 0.00 0.00 0.00 0.00 0.00 0.00 0.00 0.00 0.00 0.00 0.00 0.00 0.00 0.00 0.00 0.00 0.00 0.00 0.00 0.00 0.00 0.00 0.00 0.00 0.00 0.00 0.00
0.00 0.00 0.00 0.00 0.00 0.00 0.00 0.00 0.00 0.00 0.00 0.00 0.00 0.00 0.00 0.00 0.00 0.00 0.00 0.00 0.00 0.00 0.00 0.00 0.00 0.00 0.00 0.00 0.00 0.00 0.00 0.00 0.00 0.00 0.00 0.00 0.00 0.00 0.00 0.00 0.00 0.00 0.00 0.00
0.00 0.00 0.00 0.00 0.00 0.00 0.00 0.00 0.00 0.00 0.00 0.00 0.00 0.00 0.00 0.00 0.00 0.00 0.00 0.00 0.00 0.00 0.00 0.00 0.00 0.00 0.00 0.00 0.00 0.00 0.00 0.00 0.00 0.00 0.00 0.00 0.00 0.00 0.00 0.00 0.00 0.00 0.00 0.00
0.00 0.00 0.00 0.00 0.00 0.00 0.00 0.00 0.00 0.00 0.00 0.00 0.00 0.00 0.00 0.00 0.00 0.00 0.00 0.00 0.00 0.00 0.00 0.00 0.00 0.00 0.00 0.00 0.00 0.00 0.00 0.00 0.00 0.00 0.00 0.00 0.00 0.00 0.00 0.00 0.00 0.00 0.00 0.00
0.00 0.00 0.00 0.00 0.00 0.00 0.00 0.00 0.00 0.00 0.00 0.00 0.00 0.00 0.00 0.00 0.00 0.00 0.00 0.00 0.00 0.00 0.00 0.00 0.00 0.00 0.00 0.00 0.00 0.00 0.00 0.00 0.00 0.00 0.00 0.00 0.00 0.00 0.00 0.00 0.00 0.00 0.00 0.00
0.00 0.00 0.00 0.00 0.00 0.00 0.00 0.00 0.00 0.00 0.00 0.00 0.00 0.00 0.00 0.00 0.00 0.00 0.00 0.00 0.00 0.00 0.00 0.00 0.00 0.00 0.00 0.00 0.00 0.00 0.00 0.00 0.00 0.00 0.00 0.00 0.00 0.00 0.00 0.00 0.00 0.00 0.00 0.00
0.00 0.00 0.00 0.00 0.00 0.00 0.00 0.00 0.00 0.00 0.00 0.00 0.00 0.00 0.00 0.00 0.00 0.00 0.00 0.00 0.00 0.00 0.00 0.00 0.00 0.00 0.00 0.00 0.00 0.00 0.00 0.00 0.00 0.00 0.00 0.00 0.00 0.00 0.00 0.00 0.00 0.00 0.00 0.00
MSLP
1011.81 1011.64 1011.40 1012.14 1012.44 1012.99 1013.30 1013.72 1013.85 1013.23 1012.97 1012.99 1012.36 1011.84 1010.60 1009.96 1010.17 1010.35 1010.99 1011.70 1012.16 1012.08 1012.28 1012.17 1011.90 1011.45 1011.15 1011.01 1010.88 1010.18 1009.58 1009.43 1009.34 1009.80 1010.32 1010.61 1010.82 1010.77 1010.92 1010.94 1010.78 1010.79 1010.74 1010.74
1011.34 1010.99 1011.37 1012.29 1012.75 1013.06 1013.34 1013.69 1013.82 1013.31 1013.01 1013.12 1012.39 1011.74 1010.55 1010.09 1009.95 1010.11 1010.94 1011.84 1012.30 1012.42 1012.39 1012.41 1012.32 1012.19 1012.28 1011.97 1011.25 1010.77 1010.35 1010.17 1010.14 1010.17 1010.48 1010.66 1010.85 1011.16 1011.29 1011.29 1011.12 1011.09 1011.05 1011.01
1010.27 1010.51 1011.36 1012.15 1012.66 1013.08 1013.30 1013.60 1013.75 1013.77 1013.29 1012.91 1012.80 1011.52 1010.70 1010.11 1010.13 1010.47 1011.14 1011.83 1012.48 1012.63 1012.88 1012.93 1012.85 1012.94 1012.81 1012.32 1011.88 1011.62 1011.41 1011.12 1010.95 1010.74 1010.75 1011.03 1011.27 1011.75 1011.93 1012.14 1012.07 1011.97 1011.63 1011.42
1011.19 1010.75 1010.72 1011.59 1012.30 1012.62 1013.27 1013.18 1013.57 1013.91 1014.44 1014.23 1013.59 1012.77 1011.49 1010.47 1010.53 1010.89 1011.44 1012.12 1012.57 1012.85 1013.28 1013.00 1013.05 1013.07 1013.12 1013.13 1012.72 1012.48 1012.31 1012.17 1012.08 1011.81 1011.88 1012.12 1012.67 1012.95 1013.21 1013.11 1012.85 1012.47 1012.14 1012.04
1010.51 1010.84 1010.77 1011.42 1011.53 1012.21 1012.79 1012.82 1013.46 1013.95 1014.61 1014.71 1014.18 1014.27 1010.97 1010.74 1010.82 1011.16 1011.69 1012.27 1012.83 1013.15 1013.27 1013.33 1013.31 1013.36 1013.46 1013.45 1013.41 1013.22 1012.93 1012.95 1012.98 1012.86 1012.87 1013.09 1013.44 1013.69 1013.65 1013.47 1013.20 1012.91 1012.71 1012.49
1010.64 1010.54 1010.72 1010.96 1011.46 1011.75 1012.35 1013.20 1013.72 1014.51 1014.90 1014.88 1013.80 1013.77 1011.44 1010.69 1010.12 1010.78 1011.57 1012.21 1012.89 1013.25 1013.48 1013.65 1013.55 1013.61 1013.76 1013.78 1013.81 1013.74 1013.54 1013.85 1013.76 1013.61 1013.76 1013.94 1014.19 1014.31 1014.14 1014.01 1013.81 1013.62 1013.33 1013.03
1010.64 1010.42 1010.33 1010.30 1011.35 1012.05 1012.28 1013.48 1014.35 1015.10 1015.29 1014.52 1013.72 1013.75 1010.92 1009.58 1009.56 1009.86 1010.78 1011.91 1012.77 1013.32 1013.70 1013.76 1013.84 1014.00 1014.08 1014.23 1014.27 1014.30 1014.24 1014.59 1014.56 1014.44 1014.50 1014.62 1014.79 1014.87 1014.91 1014.83 1014.63 1014.27 1013.85 1013.47
1010.27 1011.45 1010.45 1010.23 1010.27 1011.71 1012.40 1012.93 1013.68 1014.26 1014.87 1014.37 1013.79 1012.58 1009.79 1009.36 1009.37 1009.57 1009.99 1011.15 1012.59 1013.38 1013.63 1013.77 1013.92 1014.17 1014.35 1014.54 1014.63 1014.70 1014.84 1015.03 1015.12 1015.13 1015.25 1015.29 1015.32 1015.34 1015.33 1015.22 1015.03 1014.85 1014.55 1014.11
1009.62 1010.15 1010.11 1009.75 1009.76 1011.23 1012.05 1012.47 1012.80 1013.71 1014.58 1014.46 1013.03 1011.32 1009.44 1009.20 1009.37 1009.77 1010.43 1011.37 1012.56 1013.16 1013.47 1013.80 1014.18 1014.46 1014.64 1014.94 1015.16 1015.31 1015.43 1015.64 1015.72 1015.72 1015.72 1015.75 1015.71 1015.66 1015.70 1015.55 1015.33 1015.04 1014.69 1014.30
1008.57 1009.90 1009.81 1009.67 1010.00 1010.97 1011.06 1011.62 1012.93 1013.66 1014.34 1014.20 1012.81 1011.81 1010.25 1009.63 1009.81 1010.45 1011.12 1011.63 1012.51 1013.09 1013.49 1014.03 1014.43 1014.70 1014.95 1015.41 1015.71 1015.76 1015.87 1016.00 1016.11 1016.09 1016.09 1016.25 1016.29 1016.18 1016.00 1015.76 1015.61 1015.42 1015.14 1014.75
1007.94 1008.91 1010.50 1010.42 1010.06 1010.74 1011.35 1011.54 1012.42 1012.96 1013.81 1013.91 1013.49 1011.43 1010.14 1010.07 1010.07 1010.44 1011.28 1011.92 1012.46 1012.99 1013.48 1014.02 1014.51 1015.03 1015.42 1015.81 1016.10 1016.26 1016.32 1016.46 1016.58 1016.65 1016.72 1016.63 1016.64 1016.65 1016.59 1016.33 1016.02 1015.68 1015.35 1014.97
1007.48 1008.65 1010.29 1010.17 1009.93 1009.96 1010.21 1010.88 1011.57 1012.61 1013.79 1014.07 1013.54 1011.26 1009.90 1009.92 1009.77 1010.16 1011.08 1011.87 1012.39 1012.89 1013.40 1014.01 1014.60 1015.33 1015.95 1016.31 1016.54 1016.68 1016.86 1016.96 1017.09 1017.05 1017.10 1017.30 1017.26 1017.05 1016.80 1016.56 1016.22 1015.81 1015.39 1014.93
1006.96 1008.27 1009.82 1010.42 1010.61 1010.30 1010.20 1010.67 1011.16 1012.02 1012.77 1013.25 1013.10 1011.16 1010.06 1009.77 1009.83 1010.18 1010.84 1011.61 1012.09 1012.75 1013.63 1014.34 1015.13 1015.79 1016.35 1016.70 1016.94 1017.12 1017.12 1017.24 1017.37 1017.44 1017.44 1017.43 1017.44 1017.35 1017.14 1016.80 1016.25 1015.82 1015.42 1014.97
1006.46 1007.71 1008.30 1008.73 1008.85 1009.47 1010.23 1010.39 1010.93 1011.38 1012.62 1012.59 1011.89 1010.84 1010.16 1010.09 1010.08 1010.26 1010.69 1011.18 1011.89 1012.80 1013.59 1014.49 1015.51 1016.15 1016.67 1017.01 1017.20 1017.41 1017.63 1017.73 1017.72 1017.70 1017.74 1017.81 1017.65 1017.46 1017.23 1016.89 1016.37 1015.92 1015.53 1015.15
1006.80 1007.64 1008.15 1008.37 1008.33 1008.52 1008.92 1009.57 1010.31 1010.92 1010.97 1011.32 1010.86 1010.74 1010.12 1009.80 1009.95 1010.24 1010.60 1011.11 1011.86 1012.73 1013.70 1014.65 1015.60 1016.40 1016.79 1017.13 1017.52 1017.70 1017.78 1017.88 1017.87 1017.98 1018.15 1018.01 1017.75 1017.53 1017.22 1016.91 1016.41 1015.96 1015.60 1015.17
1006.97 1007.86 1008.04 1008.73 1008.64 1008.67 1008.96 1009.25 1009.72 1010.18 1010.37 1010.43 1010.38 1010.32 1009.70 1009.84 1010.10 1010.41 1010.73 1011.14 1011.86 1012.78 1013.74 1014.76 1015.68 1016.37 1016.86 1017.29 1017.65 1017.85 1018.06 1018.04 1017.92 1018.08 1018.14 1018.04 1017.77 1017.54 1017.34 1016.91 1016.37 1015.90 1015.55 1015.15
1007.76 1007.97 1008.56 1009.21 1009.01 1008.97 1009.16 1008.49 1009.01 1009.41 1009.50 1009.59 1009.97 1009.62 1009.68 1010.29 1010.64 1010.88 1011.18 1011.44 1011.95 1012.73 1013.74 1014.76 1015.74 1016.41 1016.95 1017.42 1017.69 1017.97 1018.00 1018.03 1018.15 1017.95 1017.83 1017.96 1017.86 1017.66 1017.25 1016.82 1016.44 1016.07 1015.54 1014.95
1007.61 1008.17 1008.85 1009.76 1009.61 1009.24 1007.92 1007.79 1008.00 1008.80 1009.13 1009.31 1009.45 1009.67 1010.02 1010.59 1011.09 1011.39 1011.76 1012.13 1012.51 1013.30 1014.22 1015.06 1015.90 1016.60 1017.18 1017.48 1017.72 1017.98 1018.20 1018.22 1018.05 1018.01 1018.02 1018.06 1017.87 1017.57 1017.25 1016.93 1016.54 1016.00 1015.45 1015.05
1007.55 1008.32 1009.56 1009.96 1009.79 1008.79 1007.93 1007.90 1008.08 1008.17 1009.49 1009.49 1009.76 1010.27 1010.66 1011.09 1011.43 1011.88 1012.15 1012.72 1013.34 1013.64 1014.47 1015.26 1016.01 1016.72 1017.20 1017.58 1017.97 1018.14 1018.24 1018.24 1018.14 1018.33 1018.31 1018.01 1017.80 1017.58 1017.32 1016.86 1016.40 1015.93 1015.47 1014.92
1008.37 1008.41 1009.22 1010.26 1010.01 1008.86 1007.67 1007.40 1007.42 1007.91 1009.49 1009.77 1010.02 1010.70 1011.18 1011.64 1012.50 1012.75 1012.78 1013.43 1013.95 1014.44 1015.04 1015.73 1016.45 1016.83 1017.27 1017.73 1017.90 1018.12 1018.34 1018.52 1018.58 1018.51 1018.25 1017.95 1017.83 1017.57 1017.12 1016.86 1016.34 1015.83 1015.38 1014.68
1009.40 1009.61 1010.24 1010.52 1010.19 1008.89 1007.81 1007.70 1007.82 1009.03 1010.03 1010.04 1010.45 1010.94 1011.46 1012.07 1012.48 1012.98 1013.55 1014.18 1014.73 1015.22 1015.64 1016.19 1016.60 1017.11 1017.48 1017.67 1017.77 1018.22 1018.64 1018.73 1018.62 1018.44 1018.23 1017.98 1017.55 1017.42 1017.00 1016.59 1016.16 1015.53 1014.97 1014.37
1009.21 1010.11 1010.75 1010.91 1010.51 1009.31 1008.19 1008.35 1008.74 1009.44 1009.99 1010.32 1010.86 1011.25 1011.73 1012.10 1012.64 1013.37 1014.04 1014.64 1015.13 1015.60 1016.10 1016.47 1016.88 1017.22 1017.45 1017.79 1018.21 1018.60 1018.71 1018.74 1018.54 1018.38 1018.16 1017.86 1017.49 1017.19 1016.77 1016.41 1015.72 1015.22 1014.72 1014.11
1009.54 1009.29 1009.68 1009.86 1009.53 1008.90 1008.76 1008.78 1009.03 1009.49 1010.15 1010.88 1011.19 1011.53 1011.85 1012.30 1012.76 1013.27 1013.98 1014.68 1015.30 1015.82 1016.25 1016.60 1017.03 1017.44 1017.87 1018.14 1018.34 1018.74 1018.68 1018.54 1018.44 1018.23 1017.94 1017.68 1017.37 1017.00 1016.45 1015.96 1015.38 1014.91 1014.38 1013.76
1009.45 1009.41 1009.71 1009.98 1009.87 1009.65 1009.51 1009.60 1009.78 1010.11 1010.69 1011.15 1011.46 1011.72 1012.06 1012.54 1013.02 1013.59 1014.27 1014.98 1015.55 1015.99 1016.45 1016.88 1017.37 1017.68 1017.86 1018.19 1018.50 1018.60 1018.50 1018.32 1018.25 1018.16 1017.92 1017.57 1017.18 1016.51 1015.91 1015.54 1015.06 1014.58 1014.05 1013.49
1009.53 1009.74 1009.94 1010.17 1010.25 1010.27 1010.30 1010.17 1010.33 1010.88 1011.29 1011.66 1011.99 1012.29 1012.65 1013.01 1013.54 1014.08 1014.66 1015.16 1015.64 1016.13 1016.58 1016.90 1017.22 1017.65 1018.01 1018.24 1018.29 1018.35 1018.28 1018.27 1018.30 1018.09 1017.69 1017.14 1016.59 1016.02 1015.48 1015.07 1014.71 1014.10 1013.59 1013.07
1009.53 1009.42 1009.73 1009.56 1009.43 1009.89 1010.31 1010.64 1010.79 1011.37 1012.01 1012.49 1012.76 1013.12 1013.43 1013.67 1014.08 1014.51 1014.99 1015.32 1015.75 1016.23 1016.59 1017.00 1017.42 1017.78 1017.99 1018.11 1018.26 1018.27 1018.19 1018.27 1018.19 1017.81 1017.08 1016.59 1016.03 1015.58 1015.18 1014.61 1013.79 1013.68 1012.93 1012.19
Thickness
5595 5595 5603 5615 5635 5633 5630 5629 5632 5641 5649 5653 5655 5660 5681 5693 5697 5699 5694 5694 5693 5695 5696 5698 5700 5703 5706 5706 5708 5713 5719 5719 5719 5713 5706 5701 5696 5694 5690 5687 5684 5682 5680 5677
5593 5596 5618 5618 5620 5625 5628 5627 5628 5638 5649 5650 5655 5665 5679 5688 5695 5698 5691 5688 5688 5688 5689 5691 5692 5692 5691 5694 5700 5705 5708 5708 5706 5703 5697 5693 5689 5683 5680 5677 5675 5672 5669 5667
5601 5610 5616 5613 5613 5620 5623 5623 5628 5628 5637 5650 5647 5659 5672 5689 5693 5690 5688 5686 5683 5681 5681 5682 5683 5682 5682 5687 5690 5693 5693 5694 5693 5691 5688 5683 5679 5672 5667 5663 5660 5658 5657 5655
5591 5605 5616 5612 5613 5621 5613 5628 5627 5629 5624 5621 5644 5632 5658 5677 5682 5683 5680 5677 5675 5675 5674 5679 5679 5679 5677 5675 5678 5679 5679 5679 5676 5675 5673 5667 5659 5655 5649 5647 5646 5646 5644 5641
5589 5597 5607 5608 5624 5625 5624 5627 5625 5627 5619 5621 5633 5622 5660 5672 5673 5675 5672 5671 5669 5668 5668 5671 5674 5673 5670 5667 5665 5666 5667 5664 5662 5661 5658 5654 5647 5642 5639 5638 5636 5635 5633 5630
5590 5606 5606 5614 5622 5628 5626 5619 5615 5607 5608 5605 5632 5630 5651 5664 5674 5677 5673 5667 5664 5662 5662 5663 5665 5664 5661 5657 5655 5655 5656 5650 5649 5648 5643 5638 5633 5630 5629 5625 5623 5620 5618 5615
5583 5597 5611 5623 5612 5615 5616 5609 5598 5596 5598 5609 5627 5620 5653 5678 5681 5682 5676 5665 5660 5657 5655 5657 5657 5654 5651 5647 5646 5645 5642 5636 5634 5633 5630 5626 5621 5616 5613 5610 5608 5606 5604 5601
5574 5568 5595 5612 5621 5605 5610 5608 5597 5600 5594 5610 5618 5625 5662 5678 5673 5676 5679 5669 5656 5651 5649 5651 5650 5645 5642 5639 5636 5633 5629 5626 5623 5620 5616 5612 5609 5605 5601 5597 5593 5589 5586 5583
5584 5589 5607 5619 5629 5618 5606 5607 5618 5604 5601 5601 5622 5643 5670 5673 5668 5668 5664 5661 5650 5647 5646 5646 5641 5635 5631 5628 5624 5621 5618 5614 5610 5608 5604 5600 5596 5592 5586 5582 5579 5575 5570 5567
5596 5585 5607 5616 5621 5615 5613 5618 5604 5596 5605 5606 5619 5628 5645 5666 5667 5659 5652 5651 5646 5643 5641 5638 5632 5627 5624 5616 5612 5610 5607 5603 5599 5596 5592 5586 5581 5576 5572 5568 5563 5558 5553 5548
5601 5598 5593 5605 5606 5603 5606 5608 5605 5608 5599 5603 5604 5627 5649 5654 5656 5652 5646 5644 5641 5639 5637 5632 5625 5618 5612 5605 5601 5598 5595 5592 5587 5583 5577 5572 5567 5562 5556 5551 5546 5541 5535 5529
5609 5591 5581 5599 5612 5614 5617 5613 5613 5600 5601 5589 5593 5620 5652 5645 5646 5647 5643 5641 5638 5636 5632 5625 5617 5608 5600 5595 5591 5588 5584 5579 5574 5569 5563 5556 5551 5546 5540 5534 5529 5524 5518 5513
5608 5592 5578 5591 5599 5606 5613 5614 5612 5605 5601 5592 5597 5618 5644 5639 5643 5645 5641 5637 5636 5633 5622 5613 5605 5598 5590 5585 5582 5577 5573 5567 5561 5555 5549 5542 5536 5529 5522 5516 5513 5507 5502 5495
5613 5596 5598 5599 5611 5608 5605 5612 5613 5615 5594 5599 5602 5628 5641 5637 5641 5643 5640 5639 5634 5624 5615 5604 5594 5587 5581 5576 5570 5564 5557 5552 5546 5540 5534 5526 5519 5512 5506 5500 5496 5490 5484 5475
5609 5598 5604 5605 5613 5614 5616 5617 5608 5609 5618 5610 5626 5614 5629 5639 5641 5640 5638 5635 5628 5618 5607 5598 5589 5578 5572 5565 5557 5551 5545 5538 5532 5525 5516 5508 5502 5496 5491 5485 5479 5472 5464 5455
5605 5597 5606 5602 5607 5614 5615 5616 5606 5611 5612 5618 5617 5618 5629 5631 5630 5628 5628 5627 5621 5612 5601 5591 5580 5570 5561 5554 5546 5539 5531 5525 5518 5510 5503 5495 5488 5481 5474 5468 5461 5453 5443 5432
5600 5598 5597 5595 5601 5605 5603 5611 5608 5613 5616 5616 5610 5624 5627 5621 5619 5621 5620 5620 5618 5608 5594 5583 5570 5561 5551 5542 5534 5526 5518 5511 5503 5497 5489 5480 5473 5464 5456 5448 5440 5430 5422 5411
5600 5596 5592 5582 5591 5581 5620 5620 5619 5615 5617 5620 5620 5622 5619 5613 5610 5610 5607 5606 5603 5596 5581 5570 5558 5547 5538 5530 5521 5512 5504 5497 5489 5481 5472 5464 5455 5446 5437 5428 5418 5408 5400 5387
5599 5596 5583 5587 5584 5603 5616 5613 5614 5620 5611 5615 5612 5609 5608 5605 5603 5601 5596 5590 5584 5580 5567 5557 5547 5536 5526 5516 5507 5500 5490 5480 5473 5464 5454 5446 5438 5429 5419 5408 5397 5386 5377 5369
5593 5596 5597 5565 5581 5595 5618 5620 5623 5622 5600 5606 5606 5602 5599 5595 5586 5585 5587 5575 5567 5561 5552 5542 5531 5523 5513 5503 5494 5484 5474 5466 5457 5448 5438 5430 5420 5409 5398 5386 5376 5366 5357 5353
5582 5577 5584 5581 5581 5593 5612 5614 5615 5597 5603 5599 5597 5594 5591 5585 5583 5577 5565 5560 5552 5544 5536 5527 5519 5509 5498 5490 5483 5471 5459 5451 5441 5431 5421 5411 5400 5389 5377 5368 5357 5351 5345 5339
5587 5571 5570 5564 5576 5586 5604 5605 5601 5595 5588 5588 5586 5584 5582 5579 5575 5564 5554 5546 5538 5530 5521 5514 5503 5496 5487 5476 5464 5454 5446 5433 5423 5413 5403 5394 5383 5370 5361 5351 5345 5338 5330 5324
5587 5589 5585 5583 5586 5591 5592 5597 5588 5588 5584 5581 5581 5579 5578 5573 5568 5560 5548 5536 5527 5517 5508 5499 5490 5478 5466 5457 5448 5436 5428 5418 5407 5397 5387 5377 5366 5355 5346 5338 5333 5326 5317 5308
5582 5578 5582 5582 5582 5584 5582 5581 5582 5583 5579 5575 5572 5571 5566 5562 5553 5546 5533 5522 5512 5502 5491 5481 5471 5462 5453 5442 5431 5422 5413 5403 5392 5380 5370 5361 5351 5345 5337 5327 5318 5310 5303 5295
5573 5571 5571 5570 5570 5572 5573 5576 5573 5568 5564 5562 5557 5555 5549 5545 5535 5527 5515 5506 5496 5485 5475 5465 5457 5447 5437 5424 5415 5406 5397 5387 5376 5366 5356 5347 5340 5331 5327 5319 5308 5302 5294 5282
5559 5569 5569 5571 5571 5568 5563 5564 5564 5559 5552 5541 5543 5538 5527 5523 5515 5509 5499 5490 5480 5470 5461 5451 5441 5430 5419 5409 5399 5391 5381 5371 5360 5352 5345 5336 5330 5322 5315 5309 5308 5296 5288 5281